Flag for Canada Weather past 2 weeks in Cranbrook, British Columbia, Canada

Now
54 °F

More clouds than sun.


Feels Like: 52 °F
Forecast: 34 / 61 °F
Wind: 7 mph from West

Location: Cranbrook


UV Index: 3 (Moderate)

Visibility: 25 mi


Pressure: 30.21 "Hg

Humidity: 33%

Dew point: 25 °F

Location of CranbrookLocation

Historic Weather in Cranbrook

°F

Cranbrook temperature yesterday

Maximum temperature yesterday: 55 °F (at 6:00 PM)
Minimum temperature yesterday: 30 °F (at 3:00 AM)
Average temperature yesterday: 44 °F

Past Weeks' High & Low Weather Summary

 TemperatureHumidityPressure
High68 °F (Apr 8, 2:00 PM)93% (Apr 6, 6:00 AM)30.44 "Hg (Apr 6, 6:00 AM)
Low23 °F (Apr 14, 6:00 AM)20% (Apr 14, 5:00 PM)29.64 "Hg (Apr 18, 6:00 AM)
Average44 °F55%29.99 "Hg
* Reported Apr 5 6:00 PM — Apr 20 6:00 PM, Cranbrook, Weather by CustomWeather, © 2014

Note: Actual official high and low records may vary slightly from our data, if they occured in-between our weather recording intervals... More about our weather records

Advertising

Historic Weather Conditions — Data for Previous 24 hours

 ConditionsComfort  
Time TempWeatherWind HumidityBarometerVisibility
6:00 PM
Apr 20
54 °FBroken clouds.5 mph33%30.21 "Hg25 mi
5:00 PM54 °FPartly sunny.8 mph30%30.20 "Hg25 mi
4:00 PM54 °FPartly sunny.5 mph33%30.19 "Hg25 mi
3:00 PM52 °FPartly sunny.5 mph32%30.19 "Hg25 mi
2:00 PM52 °FPartly sunny.8 mph32%30.19 "Hg25 mi
1:00 PM50 °FPartly sunny.8 mph35%30.19 "Hg25 mi
12:00 PM50 °FPartly sunny.8 mph40%30.18 "Hg25 mi
11:00 AM48 °FPartly sunny.9 mph50%30.16 "Hg25 mi
10:00 AM48 °FPartly sunny.18 mph54%30.14 "Hg25 mi
9:00 AM43 °FPartly sunny.13 mph66%30.12 "Hg25 mi
8:00 AM43 °FPartly sunny.12 mph66%30.09 "Hg25 mi
7:00 AM39 °FPassing clouds.9 mph70%30.04 "Hg25 mi
6:00 AM37 °FPassing clouds.5 mph75%30.03 "Hg20 mi
5:00 AM39 °FPassing clouds.13 mph75%30.01 "Hg25 mi
4:00 AM41 °FPartly cloudy.5 mph70%29.98 "Hg25 mi
3:00 AM43 °FScattered showers. Partly cloudy.6 mph66%29.96 "Hg20 mi
2:00 AM41 °FPartly cloudy.13 mph76%29.92 "Hg25 mi
1:00 AM41 °FPartly cloudy.9 mph76%29.90 "Hg25 mi
12:00 AM43 °FSprinkles. Partly cloudy.3 mph76%29.88 "Hg20 mi
11:00 PM
Apr 19
46 °FSprinkles. Mostly cloudy.13 mph66%29.87 "Hg20 mi
10:00 PM48 °FScattered showers. Mostly cloudy.14 mph58%29.86 "Hg25 mi
9:00 PM48 °FScattered showers. Mostly cloudy.6 mph46%29.83 "Hg25 mi
8:00 PM52 °FBroken clouds.3 mph38%29.84 "Hg25 mi
7:00 PM55 °FBroken clouds.12 mph33%29.86 "Hg25 mi
Weather by CustomWeather, © 2014

See weather overview